Date String (YYYY-MM-DD hh:mm:ss) UTC,Instrument flags,Ambient pressure (hPa),Sample flow (lpm),Bypass flow (lpm),Sample temperature (°C),Ambient temperature (°C),ASC tube jacket temperature (°C),LED temperature (°C),Box temperature (°C),Sample RH (%),Span deviation,Mass concentration (μg/m³),Mass concentration (μg/m³),Mass concentration (μg/m³)
DateTimeUTC,F1_M11,P_M11,Q1_M11,Q2_M11,T1_M11,T2_M11,T3_M11,T4_M11,T5_M11,U1_M11,ZSPAN_M11,X2_M11,X0_M11,X1_M11
2023-03-11 06:00:00,,0811.0,5.00,0.00,22.3,20.7,00.0,31.2,24.1,22.0,0000.0,0000.12,0000.37,0000.11
2023-03-11 06:01:00,,0811.0,4.99,0.00,22.3,20.7,00.0,31.2,24.2,22.0,0000.0,0000.15,0000.62,0000.11
2023-03-11 06:02:00,,0811.0,5.01,0.00,22.3,20.7,00.0,31.2,24.2,22.0,0000.0,0000.16,0000.63,0000.12
2023-03-11 06:03:00,,0811.1,5.00,0.00,22.4,20.8,00.0,31.2,24.2,22.1,0000.0,0000.17,0000.67,0000.12
2023-03-11 06:04:00,,0811.2,5.00,0.00,22.4,20.8,00.0,31.2,24.2,22.1,0000.0,0000.18,0000.69,0000.12
2023-03-11 06:05:00,,0811.2,5.00,0.00,22.4,20.8,00.0,31.2,24.2,22.1,0000.0,0000.18,0000.69,0000.13
2023-03-11 06:06:00,,0811.2,5.00,0.00,22.4,20.8,00.0,31.2,24.2,22.1,0000.0,0000.19,0000.70,0000.13
2023-03-11 06:07:00,,0811.2,4.99,0.00,22.4,20.8,00.0,31.2,24.2,22.2,0000.0,0000.18,0000.66,0000.13
2023-03-11 06:08:00,,0811.0,5.01,0.00,22.4,20.8,00.0,31.2,24.2,22.2,0000.0,0000.18,0000.68,0000.13
2023-03-11 06:09:00,,0811.0,4.99,0.00,22.4,20.9,00.0,31.2,24.2,22.3,0000.0,0000.19,0000.71,0000.13
2023-03-11 06:10:00,,0811.0,5.01,0.00,22.4,20.9,00.0,31.2,24.2,22.3,0000.0,0000.19,0000.70,0000.13
2023-03-11 06:11:00,,0811.0,4.99,0.00,22.4,20.9,00.0,31.2,24.2,22.3,0000.0,0000.18,0000.63,0000.13
2023-03-11 06:12:00,,0810.9,5.00,0.00,22.4,20.9,00.0,31.2,24.2,22.3,0000.0,0000.16,0000.26,0000.12
2023-03-11 06:13:00,,0811.0,5.01,0.00,22.4,20.9,00.0,31.2,24.3,22.4,0000.0,0000.15,0000.24,0000.12
2023-03-11 06:14:00,,0811.0,5.00,0.00,22.4,20.9,00.0,31.2,24.3,22.3,0000.0,0000.14,0000.22,0000.11
2023-03-11 06:15:00,,0811.0,5.00,0.00,22.4,20.9,00.0,31.2,24.3,22.4,0000.0,0000.12,0000.18,0000.11
2023-03-11 06:16:00,,0811.0,5.01,0.00,22.4,20.8,00.0,31.2,24.3,22.4,0000.0,0000.12,0000.17,0000.10
2023-03-11 06:17:00,,0811.0,5.00,0.00,22.4,20.8,00.0,31.2,24.3,22.4,0000.0,0000.11,0000.17,0000.10
2023-03-11 06:18:00,,0811.1,5.00,0.00,22.4,20.8,00.0,31.2,24.3,22.4,0000.0,0000.11,0000.16,0000.09
2023-03-11 06:19:00,,0811.1,5.00,0.00,22.4,20.8,00.0,31.2,24.3,22.5,0000.0,0000.11,0000.16,0000.09
2023-03-11 06:20:00,,0811.2,4.99,0.00,22.4,20.8,00.0,31.2,24.3,22.5,0000.0,0000.09,0000.12,0000.09
2023-03-11 06:21:00,,0811.2,5.00,0.00,22.4,20.9,00.0,31.2,24.2,22.4,0000.0,0000.09,0000.12,0000.08
2023-03-11 06:22:00,,0811.2,5.00,0.00,22.4,20.9,00.0,31.2,24.2,22.4,0000.0,0000.09,0000.12,0000.08
2023-03-11 06:23:00,,0811.2,4.99,0.00,22.4,20.9,00.0,31.2,24.2,22.3,0000.0,0000.09,0000.11,0000.08
2023-03-11 06:24:00,,0811.3,4.99,0.00,22.4,20.9,00.0,31.2,24.3,22.3,0000.0,0000.08,0000.11,0000.08
2023-03-11 06:25:00,,0811.5,5.00,0.00,22.5,21.0,00.0,31.2,24.3,22.4,0000.0,0000.08,0000.11,0000.07
2023-03-11 06:26:00,,0811.5,5.01,0.00,22.4,21.0,00.0,31.2,24.3,22.4,0000.0,0000.08,0000.12,0000.07
2023-03-11 06:27:00,,0811.6,5.01,0.00,22.5,21.0,00.0,31.2,24.3,22.4,0000.0,0000.08,0000.12,0000.07
2023-03-11 06:28:00,,0811.6,5.00,0.00,22.5,20.9,00.0,31.2,24.3,22.4,0000.0,0000.08,0000.12,0000.07
2023-03-11 06:29:00,,0811.7,4.99,0.00,22.5,20.9,00.0,31.2,24.3,22.4,0000.0,0000.08,0000.11,0000.07
2023-03-11 06:30:00,,0811.6,5.00,0.00,22.5,20.9,00.0,31.2,24.3,22.4,0000.0,0000.07,0000.10,0000.07
2023-03-11 06:31:00,,0811.6,5.01,0.00,22.4,20.9,00.0,31.2,24.2,22.4,0000.0,0000.07,0000.10,0000.07
2023-03-11 06:32:00,,0811.7,5.00,0.00,22.4,20.9,00.0,31.2,24.3,22.4,0000.0,0000.08,0000.10,0000.07
2023-03-11 06:33:00,,0811.7,5.01,0.00,22.4,20.9,00.0,31.2,24.3,22.4,0000.0,0000.08,0000.11,0000.07
2023-03-11 06:34:00,,0811.6,5.01,0.00,22.4,20.9,00.0,31.2,24.3,22.4,0000.0,0000.08,0000.11,0000.07
2023-03-11 06:35:00,,0811.5,4.99,0.00,22.4,20.9,00.0,31.2,24.3,22.5,0000.0,0000.09,0000.12,0000.08
2023-03-11 06:36:00,,0811.5,4.99,0.00,22.4,20.9,00.0,31.2,24.3,22.5,0000.0,0000.09,0000.13,0000.08
2023-03-11 06:37:00,,0811.5,5.00,0.00,22.4,20.9,00.0,31.2,24.2,22.5,0000.0,0000.09,0000.12,0000.09
2023-03-11 06:38:00,,0811.4,5.01,0.00,22.4,20.9,00.0,31.2,24.2,22.5,0000.0,0000.10,0000.14,0000.09
2023-03-11 06:39:00,,0811.4,5.00,0.00,22.4,20.9,00.0,31.2,24.3,22.5,0000.0,0000.11,0000.14,0000.10
2023-03-11 06:40:00,,0811.3,5.01,0.00,22.4,20.9,00.0,31.2,24.3,22.5,0000.0,0000.11,0000.14,0000.10
2023-03-11 06:41:00,,0811.4,5.00,0.00,22.4,20.9,00.0,31.2,24.3,22.5,0000.0,0000.11,0000.15,0000.10
2023-03-11 06:42:00,,0811.4,5.00,0.00,22.5,20.9,00.0,31.2,24.3,22.4,0000.0,0000.12,0000.16,0000.10
2023-03-11 06:43:00,,0811.6,5.00,0.00,22.5,20.9,00.0,31.2,24.3,22.4,0000.0,0000.12,0000.18,0000.11
2023-03-11 06:44:00,,0811.5,5.00,0.00,22.5,20.9,00.0,31.2,24.3,22.4,0000.0,0000.12,0000.17,0000.11
2023-03-11 06:45:00,,0811.5,4.99,0.00,22.5,20.9,00.0,31.2,24.3,22.4,0000.0,0000.12,0000.17,0000.11
2023-03-11 06:46:00,,0811.5,4.99,0.00,22.5,20.9,00.0,31.2,24.3,22.3,0000.0,0000.13,0000.17,0000.11
2023-03-11 06:47:00,,0811.5,4.99,0.00,22.4,20.9,00.0,31.2,24.3,22.2,0000.0,0000.12,0000.17,0000.11
2023-03-11 06:48:00,,0811.6,4.99,0.00,22.4,20.9,00.0,31.2,24.3,22.2,0000.0,0000.13,0000.18,0000.12
2023-03-11 06:49:00,,0811.5,5.01,0.00,22.4,20.9,00.0,31.2,24.3,22.1,0000.0,0000.13,0000.17,0000.12
2023-03-11 06:50:00,,0811.6,5.00,0.00,22.4,20.9,00.0,31.2,24.2,21.9,0000.0,0000.13,0000.17,0000.12
2023-03-11 06:51:00,,0811.6,5.00,0.00,22.4,20.9,00.0,31.2,24.2,21.8,0000.0,0000.13,0000.18,0000.12
2023-03-11 06:52:00,,0811.6,5.01,0.00,22.4,20.9,00.0,31.2,24.2,21.7,0000.0,0000.14,0000.20,0000.12
2023-03-11 06:53:00,,0811.6,4.99,0.00,22.4,20.8,00.0,31.2,24.1,21.7,0000.0,0000.17,0000.26,0000.12
2023-03-11 06:54:00,,0811.6,4.99,0.00,22.4,20.8,00.0,31.1,24.1,21.5,0000.0,0000.18,0000.29,0000.12
2023-03-11 06:55:00,,0811.5,5.00,0.00,22.3,20.7,00.0,31.1,24.0,21.3,0000.0,0000.19,0000.54,0000.12
2023-03-11 06:56:00,,0811.5,4.99,0.00,22.3,20.7,00.0,31.1,24.0,21.7,0000.0,0000.19,0000.55,0000.12
2023-03-11 06:57:00,,0811.5,4.99,0.00,22.3,20.6,00.0,31.1,24.0,22.1,0000.0,0000.21,0000.57,0000.14
2023-03-11 06:58:00,,0811.6,5.00,0.00,22.2,20.6,00.0,31.1,24.0,22.0,0000.0,0000.23,0000.59,0000.16
2023-03-11 06:59:00,,0811.4,5.01,0.00,22.2,20.6,00.0,31.1,24.0,21.9,0000.0,0000.27,0000.66,0000.18
